Weather History for Harlan, IA

Change the Weather History Date:

Monday, March 17, 2014

  Actual Average Record
Temperature  
Mean Temperature 38 °F -  
Max Temperature 53 °F 47 °F 80 °F (2012)
Min Temperature 23 °F 27 °F 5 °F (1962)
Degree Days  
Heating Degree Days 27    
Moisture  
Dew Point 22 °F    
Average Humidity 58    
Maximum Humidity 80    
Minimum Humidity 35    
Precipitation  
Precipitation 0.00 in - - ()
Sea Level Pressure  
Sea Level Pressure 29.71 in    
Wind  
Wind Speed 13 mph (South)    
Max Wind Speed 26 mph    
Max Gust Speed 33 mph    
Visibility 10 miles    
Events      
Averages and records for this station are not official NWS values.
T = Trace of Precipitation, MM = Missing Value Source: NWS Daily Summary

Daily Weather History Graph

Daily Weather History Graph

Search for Another Location

Airport:

Trip Planner

Search our weather history database for the weather conditions in past years. The results will help you decide how hot, cold, wet, or windy it might be!

Date:

Astronomy

Mar. 17, 2014 Rise Set
Actual Time 7:29 AM CDT 7:30 PM CDT
Civil Twilight 7:02 AM CDT 7:57 PM CDT
Nautical Twilight 6:29 AM CDT 8:30 PM CDT
Astronomical Twilight 5:57 AM CDT 9:03 PM CDT
Moon 8:49 PM CDT (3/17) 7:44 AM CDT (3/17)
Length of Visible Light 12h 55m
Length of Day
12h 00m
Full, 99% of the Moon is Illuminated
Mar 17
Full
Mar 23
Last Quarter
Mar 30
New
Apr 7
First Quarter
Apr 15
Full

Hourly Weather History & Observations

Time (CDT) Temp. Windchill Dew Point Humidity Pressure Visibility Wind Dir Wind Speed Gust Speed Precip Events Conditions
12:15 AM 23.0 °F 17.0 °F 17.6 °F 80% 30.09 in 10.0 mi South 4.6 mph - N/A   Clear
12:35 AM 23.0 °F 18.4 °F 17.6 °F 80% 30.07 in 10.0 mi South 3.5 mph - N/A   Partly Cloudy
1:15 AM 23.0 °F 15.8 °F 17.6 °F 80% 30.05 in 10.0 mi South 5.8 mph - N/A   Mostly Cloudy
1:35 AM 23.0 °F 14.7 °F 17.6 °F 80% 30.05 in 10.0 mi SSW 6.9 mph - N/A   Mostly Cloudy
1:55 AM 23.0 °F 14.7 °F 17.6 °F 80% 30.04 in 10.0 mi South 6.9 mph - N/A   Scattered Clouds
2:15 AM 23.0 °F 14.7 °F 17.6 °F 80% 30.03 in 10.0 mi South 6.9 mph - N/A   Scattered Clouds
2:35 AM 24.8 °F 14.6 °F 17.6 °F 74% 30.01 in 10.0 mi South 10.4 mph - N/A   Mostly Cloudy
2:55 AM 24.8 °F 14.0 °F 17.6 °F 74% 29.99 in 10.0 mi South 11.5 mph - N/A   Mostly Cloudy
3:15 AM 24.8 °F 14.6 °F 15.8 °F 69% 29.98 in 10.0 mi South 10.4 mph 17.3 mph N/A   Partly Cloudy
3:35 AM 24.8 °F 13.4 °F 15.8 °F 69% 29.97 in 10.0 mi South 12.7 mph - N/A   Partly Cloudy
3:55 AM 24.8 °F 12.9 °F 15.8 °F 69% 29.96 in 10.0 mi South 13.8 mph - N/A   Mostly Cloudy
4:15 AM 24.8 °F 14.0 °F 15.8 °F 69% 29.94 in 10.0 mi South 11.5 mph - N/A   Scattered Clouds
4:35 AM 23.0 °F 12.4 °F 15.8 °F 74% 29.93 in 10.0 mi South 10.4 mph 16.1 mph N/A   Clear
4:55 AM 23.0 °F 12.4 °F 17.6 °F 80% 29.93 in 10.0 mi South 10.4 mph - N/A   Scattered Clouds
5:15 AM 24.8 °F 13.4 °F 17.6 °F 74% 29.92 in 10.0 mi South 12.7 mph - N/A   Overcast
5:35 AM 23.0 °F 11.7 °F 15.8 °F 74% 29.90 in 10.0 mi South 11.5 mph - N/A   Scattered Clouds
5:55 AM 23.0 °F 11.7 °F 15.8 °F 74% 29.89 in 10.0 mi South 11.5 mph 17.3 mph N/A   Clear
6:15 AM 23.0 °F 11.7 °F 15.8 °F 74% 29.88 in 10.0 mi South 11.5 mph 17.3 mph N/A   Clear
6:35 AM 23.0 °F 11.1 °F 17.6 °F 80% 29.88 in 10.0 mi South 12.7 mph - N/A   Clear
6:55 AM 23.0 °F 9.6 °F 15.8 °F 74% 29.87 in 10.0 mi South 16.1 mph 21.9 mph N/A   Partly Cloudy
7:15 AM 23.0 °F 11.1 °F 17.6 °F 80% 29.85 in 10.0 mi South 12.7 mph 19.6 mph N/A   Scattered Clouds
7:35 AM 23.0 °F 9.2 °F 17.6 °F 80% 29.85 in 10.0 mi South 17.3 mph - N/A   Mostly Cloudy
7:55 AM 23.0 °F 9.6 °F 17.6 °F 80% 29.83 in 10.0 mi South 16.1 mph - N/A   Mostly Cloudy
8:15 AM 23.0 °F 9.6 °F 17.6 °F 80% 29.82 in 10.0 mi South 16.1 mph - N/A   Partly Cloudy
8:35 AM 24.8 °F 11.9 °F 17.6 °F 74% 29.81 in 10.0 mi South 16.1 mph 24.2 mph N/A   Partly Cloudy
8:55 AM 26.6 °F 14.7 °F 17.6 °F 69% 29.81 in 10.0 mi South 15.0 mph 21.9 mph N/A   Partly Cloudy
9:15 AM 28.4 °F 14.7 °F 19.4 °F 69% 29.79 in 10.0 mi South 21.9 mph 27.6 mph N/A   Clear
9:35 AM 30.2 °F 17.1 °F 19.4 °F 64% 29.77 in 10.0 mi SSW 21.9 mph - N/A   Clear
9:55 AM 30.2 °F 17.8 °F 19.4 °F 64% 29.76 in 10.0 mi South 19.6 mph 26.5 mph N/A   Clear
10:15 AM 32.0 °F 20.1 °F 19.4 °F 60% 29.74 in 10.0 mi South 19.6 mph 27.6 mph N/A   Clear
10:35 AM 33.8 °F 22.2 °F 19.4 °F 56% 29.73 in 10.0 mi South 20.7 mph 28.8 mph N/A   Clear
10:55 AM 37.4 °F 26.9 °F 19.4 °F 48% 29.72 in 10.0 mi South 20.7 mph 27.6 mph N/A   Clear
11:15 AM 37.4 °F 27.2 °F 21.2 °F 52% 29.71 in 10.0 mi South 19.6 mph 32.2 mph N/A   Clear
11:35 AM 39.2 °F 28.7 °F 21.2 °F 49% 29.69 in 10.0 mi South 23.0 mph 29.9 mph N/A   Clear
11:55 AM 39.2 °F 28.5 °F 21.2 °F 49% 29.68 in 10.0 mi South 24.2 mph - N/A   Clear
12:15 PM 41.0 °F 31.6 °F 23.0 °F 49% 29.66 in 10.0 mi South 20.7 mph 29.9 mph N/A   Clear
12:35 PM 42.8 °F 32.9 °F 23.0 °F 46% 29.64 in 10.0 mi South 26.5 mph 32.2 mph N/A   Clear
12:55 PM 42.8 °F 33.8 °F 23.0 °F 46% 29.64 in 10.0 mi South 21.9 mph - N/A   Clear
1:15 PM 44.6 °F 36.9 °F 23.0 °F 43% 29.64 in 10.0 mi South 18.4 mph 29.9 mph N/A   Clear
1:35 PM 44.6 °F 36.6 °F 23.0 °F 43% 29.62 in 10.0 mi South 19.6 mph 28.8 mph N/A   Clear
1:55 PM 46.4 °F 38.5 °F 24.8 °F 43% 29.61 in 10.0 mi South 21.9 mph - N/A   Clear
2:15 PM 46.4 °F 38.7 °F 24.8 °F 43% 29.60 in 10.0 mi South 20.7 mph 28.8 mph N/A   Clear
2:35 PM 48.2 °F - 24.8 °F 40% 29.59 in 10.0 mi South 19.6 mph 29.9 mph N/A   Clear
2:55 PM 48.2 °F - 24.8 °F 40% 29.57 in 10.0 mi South 23.0 mph 29.9 mph N/A   Clear
3:15 PM 50.0 °F - 24.8 °F 37% 29.56 in 10.0 mi South 21.9 mph 28.8 mph N/A   Clear
3:35 PM 50.0 °F - 24.8 °F 37% 29.56 in 10.0 mi South 24.2 mph 31.1 mph N/A   Clear
3:55 PM 50.0 °F - 26.6 °F 40% 29.55 in 10.0 mi South 23.0 mph 29.9 mph N/A   Clear
4:15 PM 51.8 °F - 26.6 °F 38% 29.54 in 10.0 mi South 23.0 mph 31.1 mph N/A   Clear
4:35 PM 51.8 °F - 26.6 °F 38% 29.52 in 10.0 mi South 24.2 mph 32.2 mph N/A   Clear
4:55 PM 53.6 °F - 26.6 °F 35% 29.52 in 10.0 mi South 23.0 mph 31.1 mph N/A   Clear
5:15 PM 53.6 °F - 26.6 °F 35% 29.52 in 10.0 mi South 21.9 mph 28.8 mph N/A   Clear
5:35 PM 51.8 °F - 26.6 °F 38% 29.52 in 10.0 mi South 24.2 mph 33.4 mph N/A   Clear
5:55 PM 51.8 °F - 26.6 °F 38% 29.51 in 10.0 mi South 24.2 mph 32.2 mph N/A   Clear
6:15 PM 51.8 °F - 26.6 °F 38% 29.51 in 10.0 mi South 21.9 mph 28.8 mph N/A   Clear
6:35 PM 50.0 °F - 26.6 °F 40% 29.50 in 10.0 mi South 20.7 mph 26.5 mph N/A   Clear
6:55 PM 48.2 °F - 26.6 °F 43% 29.51 in 10.0 mi South 17.3 mph 24.2 mph N/A   Clear
7:15 PM 46.4 °F 39.8 °F 26.6 °F 46% 29.51 in 10.0 mi South 16.1 mph - N/A   Clear
7:35 PM 46.4 °F 41.1 °F 26.6 °F 46% 29.51 in 10.0 mi South 11.5 mph 20.7 mph N/A   Clear
7:55 PM 44.6 °F 39.2 °F 26.6 °F 49% 29.51 in 10.0 mi South 10.4 mph - N/A   Clear
8:15 PM 44.6 °F 38.1 °F 26.6 °F 49% 29.51 in 10.0 mi South 13.8 mph 20.7 mph N/A   Clear
8:35 PM 44.6 °F 38.1 °F 26.6 °F 49% 29.51 in 10.0 mi South 13.8 mph - N/A   Clear
8:55 PM 44.6 °F 37.8 °F 26.6 °F 49% 29.51 in 10.0 mi South 15.0 mph 23.0 mph N/A   Clear
9:15 PM 42.8 °F 36.2 °F 26.6 °F 53% 29.51 in 10.0 mi South 12.7 mph - N/A   Clear
9:35 PM 42.8 °F 35.1 °F 26.6 °F 53% 29.51 in 10.0 mi South 16.1 mph - N/A   Clear
9:55 PM 42.8 °F 34.8 °F 26.6 °F 53% 29.52 in 10.0 mi South 17.3 mph 23.0 mph N/A   Clear
10:15 PM 42.8 °F 35.1 °F 26.6 °F 53% 29.51 in 10.0 mi South 16.1 mph - N/A   Clear
10:35 PM 44.6 °F 37.2 °F 26.6 °F 49% 29.52 in 10.0 mi South 17.3 mph 24.2 mph N/A   Clear
10:55 PM 42.8 °F 34.5 °F 26.6 °F 53% 29.51 in 10.0 mi South 18.4 mph 26.5 mph N/A   Clear
11:15 PM 42.8 °F 34.8 °F 26.6 °F 53% 29.51 in 10.0 mi South 17.3 mph - N/A   Clear
11:35 PM 42.8 °F 35.1 °F 28.4 °F 57% 29.52 in 10.0 mi South 16.1 mph 24.2 mph N/A   Clear
11:55 PM 42.8 °F 35.1 °F 28.4 °F 57% 29.52 in 10.0 mi South 16.1 mph - N/A   Clear